Regional Weather Roundup
Issued by NWS

Home | Current Version | Previous Version | Text Only | Print | Product List | Glossary On
Versions: 1 2 3 4 5 6 7 8 9 10 11 12 13 14 15 16 17 18 19 20 21 22 23 24 25 26 27 28 29 30 31 32 33 34 35 36 37 38 39 40 41 42 43 44 45 46 47 48 49 50
378
ASUS43 KLMK 212110
RWRKY
KENTUCKY REGIONAL WEATHER ROUNDUP
NATIONAL WEATHER SERVICE LOUISVILLE KY
400 PM EST TUE FEB 21 2017

NOTE "FAIR" INDICATES FEW OR NO CLOUDS BELOW 12,000 FEET
WITH NO SIGNIFICANT WEATHER AND/OR OBSTRUCTIONS TO VISIBILITY.

KYZ001>023-026-027-061>063-070>075-212200-
WESTERN AND SOUTH CENTRAL KENTUCKY

CITY           SKY/WX    TMP DP  RH WIND       PRES   REMARKS
PADUCAH        CLOUDY    63  55  75 S3        29.89F
HENDERSON      CLOUDY    63  54  72 SE6       29.91S
OWENSBORO      LGT RAIN  63  56  78 S8        29.93S
HOPKINSVILLE   PTSUNNY   71  53  52 S6        29.87F HAZE
BOWLING GREEN  CLOUDY    70  53  54 S14G20    29.93S
GLASGOW        CLOUDY    65  52  62 SE6       29.95S
$$

KYZ024-025-028>034-038-045-046-053-212200-
NORTH CENTRAL KENTUCKY

CITY           SKY/WX    TMP DP  RH WIND       PRES   REMARKS
LOUISVILLE/SDF CLOUDY    72  48  42 S7        29.93F
LOUISVILLE/LOU CLOUDY    71  50  47 S7        29.94F
FORT KNOX      CLOUDY    69  52  54 S7        29.92F
$$

KYZ035>037-039>044-047>052-055>060-089>105-212200-
NORTHEAST KENTUCKY

CITY           SKY/WX    TMP DP  RH WIND       PRES   REMARKS
LEXINGTON      CLOUDY    70  46  42 S8        29.97F
COVINGTON      CLOUDY    67  50  54 NW3       29.96F
FRANKFORT      CLOUDY    71  48  43 VRB3      29.94F
$$

KYZ054-064>069-076>088-106>120-212200-
SOUTHEAST KENTUCKY

CITY           SKY/WX    TMP DP  RH WIND       PRES   REMARKS
JACKSON        MOSUNNY   70  42  36 CALM      29.99F
LONDON         PTSUNNY   69  43  38 S7        29.98F
SOMERSET       CLOUDY    68  46  45 S7        29.98S
MIDDLESBORO    MOSUNNY   71  45  39 SW7       29.99F
MONTICELLO     CLOUDY    69  51  52 VRB6      29.99R
$$





USA.gov is the U.S. government's official web portal to all federal, state and local government web resources and services.